Location: Newark
(54.2500°N, 9.1833°E)
Time: 14:11:31
(UTC+00:00)

A-11 Canister half - Pass Details

Date: 15 December 2019
Orbit: 1516 x 1683 km, 47.2° (Epoch: 18 January)

Event Time Altitude Azimuth Distance (km) Brightness Sun altitude
Rises 16:24:24 0° 284° (WNW) 4,848 12.5 -11.3°
Reaches altitude 10° 16:28:01 10° 274° (W) 3,883 12.2 -11.8°
Maximum altitude 16:36:04 29° 220° (SW) 2,698 11.0 -12.8°
Drops below altitude 10° 16:44:14 10° 165° (SSE) 3,937 11.2 -13.9°
Sets 16:47:57 0° 155° (SSE) 4,926 11.6 -14.5°
